Participated 3 times
Between 1972 and 1981
Eddy Verstraeten, Belgium
Tour de France 2026 starts from Barcelona, Spain in

Stats and Facts from
Tour de France.

2026   2025   2024   2023  2022  2021  2020  2019   2018  2017   2016   2015  2014  2013   2012   2011  2010   2009   2008   2007   2006   2005   2004   2003   2002   2001   2000   1999   1998   1997  1996   1995   1994   1993   1992  1991   1990   1989   1988   1987   1986   1985   1984   1983  1982  1981   1980   1979  1978  1977   1976  1975  1974  1973   1972   1971   1970  1969   1968   1967   1966   1965  1964  1963   1962   1961   1960   1959   1958   1957  1956   1955   1954   1953   1952  1951  1950  1949   1948  1947  1939   1938   1937   1936   1935   1934   1933  1932   1931   1930  1929   1928   1927   1926  1925  1924  1923   1922   1921   1920   1919  1914   1913   1912   1911   1910  1909   1908   1907   1906  1905  1904   1903 

Tourstats
Sitemap

After stage 21 - 2025:
 16451 starters.
  5464 different riders.
  689 teams.
  2398 stages.
  470 restdays.
  466506.50 km.
  5925 abandoned riders.

Click map for 1910 route.
Facts from Tour de France 1910 Additional info and images from 1910.
  |   Stages.  |   Stage winners.  |   Days in jerseys.  |   Teams.  |   All riders.  |   All riders by age.  |   All riders from.  |  

  |   Rookies.  |   Withdrawls.  |   Average speed.  |   GC.  |   Polka  |   Green  |   White  |   Summits. (In tour)  |   Miscellaneous.  |  

Stage 4 on July 9th. 1910
Pick a stage:  1  2  3  4  5  6  7  8  9  10  11  12  13  14  15  

After stage 4:    François Faber  
  BelfortLyon | Dist: 309.00km. | Winner: François Faber

Podium

Average speed for all riders in stage:  26,631 km./hr.

1
 François Faber  Alcyon09h 44' 00"=31,747  km/h

2
 Ernesto Azzini  Legnano09h 44' 00"=31,747  km/h

3
 Louis Trousselier  Alcyon09h 44' 00"=31,747  km/h

4  Marcel Godivier  Alcyon09h 44' 00"=31,747  km/h

5  André Blaise  Alcyon09h 44' 00"=31,747  km/h

6  Aldo Bettini  Alcyon09h 44' 01"+  00:00:01 =31,746  km/h

7  Giuseppe Azzini  Legnano09h 52' 00"+  00:08:00 =31,318  km/h

8  Frédéric Saillot  Le Globe09h 52' 00"+  00:08:00 =31,318  km/h

9  Gustave Garrigou  Alcyon09h 54' 00"+  00:10:00 =31,212  km/h

10  Henri Cornet  Le Globe09h 56' 00"+  00:12:00 =31,107  km/h

11  Charles Cruchon  Individual09h 57' 00"+  00:13:00 =31,055  km/h

12  Ernest Paul  Individual09h 57' 00"+  00:13:00 =31,055  km/h

13  Alphonse Charpiot  Le Globe09h 58' 00"+  00:14:00 =31,003  km/h

14  Lucien Petit-Breton  Legnano09h 58' 30"+  00:14:30 =30,977  km/h

15  Jean-Baptiste Dortignacq  Legnano10h 03' 00"+  00:19:00 =30,746  km/h

16  Georges Paulmier  Le Globe10h 05' 00"+  00:21:00 =30,645  km/h

17  Jules Deloffre  Le Globe10h 05' 00"+  00:21:00 =30,645  km/h

18  Emile Georget  Legnano10h 20' 00"+  00:36:00 =29,903  km/h

19  François  Lafourcade  Individual10h 21' 00"+  00:37:00 =29,855  km/h

20  Cyrille Van Hauwaert  Alcyon10h 31' 00"+  00:47:00 =29,382  km/h

21  Octave Lapize  Alcyon10h 31' 00"+  00:47:00 =29,382  km/h

22  Leon Lannoy  Le Globe10h 31' 30"+  00:47:30 =29,359  km/h

23  Julien Maîtron  Le Globe10h 46' 00"+  01:02:00 =28,700  km/h

24  Edouard Leonard  Alcyon10h 46' 00"+  01:02:00 =28,700  km/h

25  Maurice Pardon  Individual10h 46' 00"+  01:02:00 =28,700  km/h

26  François Riou  Individual10h 51' 00"+  01:07:00 =28,479  km/h

27  Augustin Ringeval  Individual11h 04' 00"+  01:20:00 =27,922  km/h

28  Albert Cognat  Individual11h 04' 00"+  01:20:00 =27,922  km/h

29  Georges Fleury  Individual11h 06' 00"+  01:22:00 =27,838  km/h

30  Lucien Pothier  Individual11h 06' 00"+  01:22:00 =27,838  km/h

31  Pierre Privat  Individual11h 06' 00"+  01:22:00 =27,838  km/h

32  Joseph Leblanc  Individual11h 09' 00"+  01:25:00 =27,713  km/h

33  Charles Dumont  Individual11h 13' 00"+  01:29:00 =27,548  km/h

34  Auguste Guyon  Individual11h 13' 00"+  01:29:00 =27,548  km/h

35  Gabriel Mathonat  Individual11h 14' 00"+  01:30:00 =27,507  km/h

36  Charles Crupelandt  Le Globe11h 28' 00"+  01:44:00 =26,948  km/h

37  Lucien Roquebert  Individual11h 38' 00"+  01:54:00 =26,562  km/h

38  Noel Combelles  Individual11h 40' 00"+  01:56:00 =26,486  km/h

39  Pierino Albini  Legnano11h 46' 00"+  02:02:00 =26,261  km/h

40  Rene Bartholet  Individual11h 50' 00"+  02:06:00 =26,113  km/h

41  Georges Cauvry  Individual11h 51' 00"+  02:07:00 =26,076  km/h

42  Auguste Dufour  Individual11h 55' 00"+  02:11:00 =25,930  km/h

43  Joseph Habierre  Individual11h 56' 00"+  02:12:00 =25,894  km/h

44  Louis Pennequin  Individual12h 08' 00"+  02:24:00 =25,467  km/h

45  Robert Chopard  Individual12h 09' 00"+  02:25:00 =25,432  km/h

46  Lucien Leman  Individual12h 22' 00"+  02:38:00 =24,987  km/h

47  Antony Wattelier  Individual12h 23' 00"+  02:39:00 =24,953  km/h

48  Louis Jouin  Individual12h 24' 00"+  02:40:00 =24,919  km/h

49  Raphael Galiero  Individual12h 47' 00"+  03:03:00 =24,172  km/h

50  Jean Perrucca  Individual12h 49' 00"+  03:05:00 =24,109  km/h

51  Emile Godard  Individual12h 52' 00"+  03:08:00 =24,016  km/h

52  Henri Alavoine  Individual12h 52' 00"+  03:08:00 =24,016  km/h

53  Jean Bouillet  Individual12h 52' 00"+  03:08:00 =24,016  km/h

54  Camille Bière  Individual12h 52' 00"+  03:08:00 =24,016  km/h

55  Constant Menager  Legnano12h 52' 00"+  03:08:00 =24,016  km/h

56  Louis Picard  Individual12h 52' 00"+  03:08:00 =24,016  km/h

57  René Chaudé  Individual12h 52' 00"+  03:08:00 =24,016  km/h

58  Francois Picolot  Individual12h 52' 00"+  03:08:00 =24,016  km/h

59  Alexandre Rambaudi  Individual12h 52' 00"+  03:08:00 =24,016  km/h

60  Pietro Ghislotti  Individual12h 52' 00"+  03:08:00 =24,016  km/h

61  Jean-Baptiste Camdessoucens  Individual12h 52' 00"+  03:08:00 =24,016  km/h

62  Emile Besnier  Individual12h 52' 00"+  03:08:00 =24,016  km/h

63  Eugene Moura  Individual12h 52' 00"+  03:08:00 =24,016  km/h

64  Maurice Decaup  Legnano12h 52' 00"+  03:08:00 =24,016  km/h

65  Omer Beaugendre  Le Globe12h 52' 00"+  03:08:00 =24,016  km/h

66  Maurice Brocco  Legnano12h 52' 00"+  03:08:00 =24,016  km/h

67  Eugene Leroy  Individual12h 52' 00"+  03:08:00 =24,016  km/h

68  Albert Baudet  Individual12h 52' 00"+  03:08:00 =24,016  km/h

69  Emile Lamy  Individual12h 52' 00"+  03:08:00 =24,016  km/h

70  Lauro Bordin  Legnano12h 52' 00"+  03:08:00 =24,016  km/h

71  Adrien Heloin  Individual12h 52' 00"+  03:08:00 =24,016  km/h

72  Adolphe Hélière  Individual12h 52' 00"+  03:08:00 =24,016  km/h

73  Constant Collet  Individual12h 52' 00"+  03:08:00 =24,016  km/h

74  Georges Devilly  Individual12h 52' 00"+  03:08:00 =24,016  km/h

75  Henri Ory  Individual12h 52' 00"+  03:08:00 =24,016  km/h

76  Paul Amiot  Individual12h 52' 00"+  03:08:00 =24,016  km/h

77  Joseph Wiringer  Individual12h 52' 00"+  03:08:00 =24,016  km/h

78  Pierre Desvages  Individual12h 52' 00"+  03:08:00 =24,016  km/h


Withdrawls: 5
 RiderTeamReason
127   Hippolyte Charpentier IndividualDid not finish
134   Paul Boillat IndividualDid not finish
139   Emile Abegg IndividualDid not finish
161   Georges Wagner IndividualDid not finish
200   Andre Herbelin IndividualDid not finish
Todays birthdays.

1889 • Adolphe Landon
1890 • Jules Lebreton
1904 • Julien Grujon
1909 • Erich Metze
1926 • Giovanni Rossi
1928 • Serge Blusson
1928 • Alois Vansteenkiste
1931 • André Dupré
1934 • Alfred Rüegg
1962 • Francisco Espinosa
1962 • Paul Kimmage
1963 • Federico Muñoz
1966 • Andrea Tafi
1971 • Emmanuel Magnien
1973 • Paolo Savoldelli
1985 • Mikhail Ignatyev

 

Optimized for Chrome - Edge
and Opera browsers.